Baltimore, MD

7:23 PM EDT on May 23, 2018 (GMT -0400)
Baltimore-Washington International

Weather History for KBWI - April, 2013

Change the Weather History Date:

Sunday, April 28, 2013

  Actual Average Record
Temperature  
Mean Temperature 55 °F 58 °F  
Max Temperature 68 °F 69 °F 90 °F (1957)
Min Temperature 41 °F 46 °F 33 °F (1998)
Degree Days  
Heating Degree Days 10 8  
Month to date heating degree days 290 338  
Since 1 July heating degree days 4331 4599  
Cooling Degree Days 0 1  
Month to date cooling degree days 26 10  
Year to date cooling degree days 26 11  
Growing Degree Days 4 (Base 50)    
Moisture  
Dew Point 36 °F    
Average Humidity 56    
Maximum Humidity 89    
Minimum Humidity 22    
Precipitation  
Precipitation T in 0.11 in 1.43 in (2002)
Month to date precipitation 1.72 2.98  
Year to date precipitation 9.95 12.83  
Snow  
Snow 0.00 in 0.00 in 0.10 in (1898)
Month to date snowfall T 0.0  
Since 1 July snowfall 8.0 20.1  
Snow Depth 0.00 in    
Sea Level Pressure  
Sea Level Pressure 30.24 in    
Wind  
Wind Speed 5 mph (SSE)    
Max Wind Speed 17 mph    
Max Gust Speed 25 mph    
Visibility 10 miles    
Events Rain    
T = Trace of Precipitation, MM = Missing Value Source: NWS Daily Summary

Daily Weather History Graph

Daily Weather History Graph

Search for Another Location

Airport or City:

Astronomy

Apr. 28, 2013 Rise Set
Actual Time 6:11 AM EDT 7:57 PM EDT
Civil Twilight 5:43 AM EDT 8:25 PM EDT
Nautical Twilight 5:08 AM EDT 9:00 PM EDT
Astronomical Twilight 4:31 AM EDT 9:37 PM EDT
Moon 11:24 PM EDT (4/28) 8:26 AM EDT (4/28)
Length of Visible Light 14h 42m
Length of Day
13h 45m
Waning Gibbous, 89% of the Moon is Illuminated
Apr 28
Waning Gibbous
May 2
Last Quarter
May 9
New
May 18
First Quarter
May 25
Full

Hourly Weather History & Observations

Time (EDT) Temp. Dew Point Humidity Pressure Visibility Wind Dir Wind Speed Gust Speed Precip Events Conditions
12:54 AM 54.0 °F 42.1 °F 64% 30.30 in 10.0 mi Calm Calm - N/A   Scattered Clouds
1:54 AM 48.9 °F 42.1 °F 77% 30.29 in 10.0 mi Calm Calm - N/A   Scattered Clouds
2:54 AM 48.9 °F 41.0 °F 74% 30.28 in 10.0 mi Calm Calm - N/A   Scattered Clouds
3:54 AM 46.9 °F 41.0 °F 80% 30.27 in 10.0 mi Calm Calm - N/A   Scattered Clouds
4:54 AM 44.1 °F 41.0 °F 89% 30.26 in 10.0 mi Calm Calm - N/A   Partly Cloudy
5:54 AM 43.0 °F 39.9 °F 89% 30.26 in 10.0 mi Calm Calm - N/A   Partly Cloudy
6:54 AM 43.0 °F 39.9 °F 89% 30.27 in 9.0 mi Calm Calm - N/A   Partly Cloudy
7:54 AM 51.1 °F 43.0 °F 74% 30.27 in 10.0 mi Calm Calm - N/A   Mostly Cloudy
8:54 AM 57.2 °F 41.0 °F 55% 30.28 in 10.0 mi SSE 3.5 mph - N/A   Mostly Cloudy
9:54 AM 61.0 °F 37.9 °F 42% 30.27 in 10.0 mi Variable 4.6 mph - N/A   Mostly Cloudy
10:54 AM 66.0 °F 36.0 °F 33% 30.27 in 10.0 mi Variable 3.5 mph - N/A   Mostly Cloudy
11:54 AM 66.9 °F 28.9 °F 24% 30.26 in 10.0 mi ESE 15.0 mph 25.3 mph N/A   Mostly Cloudy
12:54 PM 66.0 °F 30.0 °F 26% 30.26 in 10.0 mi SE 13.8 mph 23.0 mph N/A   Overcast
1:54 PM 66.0 °F 26.1 °F 22% 30.25 in 10.0 mi South 12.7 mph 21.9 mph N/A   Overcast
2:54 PM 66.0 °F 27.0 °F 23% 30.23 in 10.0 mi SSE 13.8 mph 20.7 mph N/A   Overcast
3:54 PM 64.9 °F 30.9 °F 28% 30.22 in 10.0 mi South 10.4 mph 17.3 mph N/A   Overcast
4:54 PM 63.0 °F 32.0 °F 31% 30.19 in 10.0 mi Variable 6.9 mph - 0.00 in Rain Light Rain
5:54 PM 62.1 °F 30.9 °F 31% 30.18 in 10.0 mi SE 8.1 mph - 0.00 in Rain Light Rain
6:54 PM 61.0 °F 32.0 °F 34% 30.17 in 10.0 mi SSE 5.8 mph - 0.00 in Rain Light Rain
7:54 PM 60.1 °F 33.1 °F 36% 30.17 in 10.0 mi Variable 5.8 mph - 0.00 in   Overcast
8:54 PM 59.0 °F 37.0 °F 44% 30.17 in 10.0 mi SSE 6.9 mph - N/A   Overcast
9:54 PM 59.0 °F 36.0 °F 42% 30.19 in 10.0 mi SSE 8.1 mph - N/A   Overcast
10:54 PM 57.9 °F 37.0 °F 46% 30.18 in 10.0 mi SSE 4.6 mph - N/A   Overcast
11:54 PM 57.9 °F 39.9 °F 51% 30.18 in 10.0 mi SE 4.6 mph - N/A   Overcast